Simultaneous Nadir Overpasses (SNOs) Predictions

Prediction of SNOs between NOAA-19 and TERRA Satellite Orbit:

Table of predicted SNOs for the next 14.0 days since TLE Epoch: 6/25/2022
Index Date (NOAA-19) Time (NOAA-19) Lat,Lon (NOAA-19) SZA (NOAA-19 ) Date (TERRA) Time (TERRA) Lat,Lon (TERRA) SZA (TERRA ) Distance(km) Time Diff (sec)
1 06/25/2022 13:59:33 80.80, 5.87 59.18 06/25/2022 14:00:43 80.79, 5.77 59.19 1.87 70
2 06/25/2022 14:50:27 -80.79, 173.34 120.81 06/25/2022 14:50:10 -80.79, 173.33 120.83 0.92 17
3 06/27/2022 20:23:28 80.80, -90.06 59.25 06/27/2022 20:23:49 80.79, -90.04 59.26 0.93 21
4 06/27/2022 21:14:22 -80.79, 77.49 120.73 06/27/2022 21:13:16 -80.79, 77.54 120.76 1.11 66
5 06/30/2022 01:56:18 -80.80, 6.79 120.64 06/30/2022 01:57:28 -80.81, 6.77 120.60 1.43 70
6 06/30/2022 02:47:23 80.80, 173.97 59.36 06/30/2022 02:46:55 80.79, 174.10 59.35 2.88 28
7 07/02/2022 08:20:13 -80.80, -89.11 120.49 07/02/2022 08:20:34 -80.80, -89.13 120.48 0.48 21
8 07/04/2022 13:53:13 80.81, 7.41 59.67 07/04/2022 13:54:13 80.79, 7.28 59.67 3.02 60
9 07/04/2022 14:44:08 -80.80, 174.95 120.31 07/04/2022 14:43:40 -80.79, 174.91 120.34 1.52 28
10 07/06/2022 20:17:07 80.80, -88.35 59.90 07/06/2022 20:17:18 80.80, -88.41 59.89 1.33 11
11 07/09/2022 01:49:59 -80.81, 8.17 119.89 07/09/2022 01:50:57 -80.81, 8.25 119.86 1.57 58



Historial Predications of SNOs between NOAA-19 and TERRA
